Вернуться в каталог

SL-14 DEB

АктивенPO
NORAD 19580·DEBRIS·🇷🇺 Russia

Запущен Oct 26, 1978 с Plesetsk Cosmodrome

Loading…

Ближайшие Пролёты (ближайшие 24 часа)

TLE

СвежийSource: Space-Track

Эпоха: Sep 14, 2026, 10:22 UTC

1 19580U 78100AL  26257.43240332  .00000102  00000-0  47696-3 0  9990
2 19580  82.6497 246.8318 0301622 292.0576 224.0307 12.56657742707825

Отслеживайте SL-14 DEB в реальном времени с AllMySat

Download on the App Store